RH
16 21 22 18 16 14 18 19 19 17 13 15 17 17 15 14 14 15 16 16 16 16 15 18 23 35 40 44 55 67 69 74 73 71 69 67 64 70 66 67 64 63 66 67
19 23 19 14 12 13 13 17 18 15 12 14 15 16 15 15 15 14 16 16 17 16 19 20 26 44 48 57 64 68 69 77 74 72 74 65 67 60 62 64 69 66 66 74
22 17 15 16 15 14 14 15 17 17 14 12 14 18 19 15 14 14 14 15 16 17 17 18 26 48 50 58 65 66 71 76 74 73 73 76 72 72 69 68 70 71 66 70
18 15 13 15 17 14 17 11 11 13 15 20 14 24 23 18 17 16 15 15 15 16 17 19 29 50 54 55 58 65 72 76 72 75 73 78 74 72 69 70 77 80 69 71
14 16 17 16 14 14 15 10 11 12 15 18 16 21 20 17 17 15 15 14 15 16 18 20 39 46 47 54 60 68 74 74 73 74 74 75 77 70 68 67 70 75 79 77
12 9 10 15 12 11 12 12 13 14 14 24 21 21 21 18 17 15 14 13 13 16 16 19 39 44 49 51 59 69 73 74 72 73 75 78 78 75 74 73 82 79 83 92
20 14 10 9 14 12 13 21 25 25 22 26 17 19 21 18 14 13 15 14 15 17 16 34 42 43 51 55 62 66 68 74 72 70 71 70 75 73 73 74 85 82 89 89
48 41 12 10 13 17 15 20 21 32 26 20 15 23 18 15 12 13 14 16 17 17 28 36 40 46 46 55 61 61 66 69 68 67 69 72 73 72 78 84 82 89 91 89
58 43 20 9 11 13 17 18 15 22 16 16 14 15 16 14 14 14 15 17 20 27 34 38 40 46 49 56 60 61 64 64 64 65 71 72 72 72 76 84 82 90 83 80
46 60 31 24 8 11 16 12 21 19 30 30 17 19 16 19 18 16 18 19 20 30 33 36 40 46 48 52 58 61 60 61 60 62 65 63 71 62 75 80 81 81 82 75
40 62 49 30 16 15 16 16 16 19 17 24 27 19 17 22 18 16 17 17 20 30 32 36 39 43 44 48 48 58 56 56 58 60 64 74 70 69 76 81 77 80 79 72
43 68 59 39 21 12 15 16 18 21 29 19 19 18 17 15 14 15 16 14 23 29 32 33 36 40 43 47 49 54 55 49 52 52 55 72 69 76 78 78 77 78 75 68
78 62 62 49 35 31 27 16 18 22 26 27 20 20 15 14 14 14 17 14 26 30 32 34 36 38 42 44 46 43 46 46 45 44 53 72 76 77 76 75 75 73 73 73
72 79 65 73 74 79 58 22 16 20 24 22 18 19 15 15 18 18 20 25 28 31 35 34 36 38 40 42 39 39 41 41 42 41 50 72 76 76 80 78 76 73 68 70
93 91 59 46 59 79 83 54 17 17 19 23 19 16 15 18 19 24 27 29 30 31 31 35 37 38 39 41 38 36 36 38 42 40 54 72 70 73 70 73 76 74 73 72
87 97 70 54 38 71 80 48 35 13 15 17 19 19 20 23 18 24 27 27 29 29 28 32 34 36 38 38 34 37 38 39 40 44 54 67 60 74 73 72 78 79 75 79
55 90 80 65 47 65 69 43 35 22 14 16 21 24 20 21 14 22 26 26 27 28 28 31 33 36 40 36 37 40 39 38 40 42 49 59 62 66 68 72 74 83 87 88
50 55 74 78 84 89 48 22 20 16 15 15 18 17 15 16 15 26 22 23 26 26 27 31 32 39 41 34 33 38 35 36 36 39 43 51 53 61 65 75 80 88 90 93
37 48 84 84 83 74 56 41 27 19 26 34 22 13 12 13 30 38 30 30 26 28 28 31 32 38 41 35 36 35 36 34 34 36 41 45 50 64 66 76 86 85 85 92
28 40 75 74 92 94 82 54 36 28 55 40 34 29 31 27 21 42 36 34 33 36 28 30 31 36 41 39 38 39 36 33 34 32 36 36 51 61 72 81 88 88 90 92
39 59 72 71 92 99 73 56 40 50 72 43 39 39 41 44 42 43 34 34 33 30 29 30 33 38 44 39 40 39 37 35 31 28 33 36 48 60 68 82 88 88 88 88
82 69 67 54 70 95 69 54 73 77 60 48 42 42 43 40 35 35 32 35 33 30 27 27 33 40 42 37 39 38 42 33 28 28 31 41 55 46 57 80 82 80 87 90
95 94 99 92 96 92 91 69 65 54 49 46 45 41 38 38 37 34 35 35 32 30 31 24 31 41 42 37 36 39 41 31 28 32 40 49 50 56 61 74 81 77 82 82
76 66 95 88 87 91 85 67 49 46 44 41 43 43 36 38 35 36 33 31 29 26 27 25 30 38 43 37 35 37 34 27 28 39 46 52 52 59 60 61 68 64 70 82
81 80 72 83 77 75 58 56 41 44 40 38 37 39 37 34 35 35 34 33 29 27 24 26 30 36 40 35 33 33 30 28 36 44 46 52 48 56 57 58 62 57 72 66
74 76 81 77 54 56 49 44 42 46 42 38 37 38 37 32 34 33 35 35 33 28 26 26 32 36 36 33 31 29 26 29 40 47 44 44 45 49 46 55 59 97 87 85
Wind_Speed
21 17 25 41 30 29 28 31 33 29 27 29 26 26 28 23 20 22 19 14 17 21 15 10 8 2 7 4 6 7 7 7 9 7 8 6 7 4 4 4 6 5 4 4
20 29 38 21 32 31 34 31 31 29 27 24 23 26 26 22 22 20 19 17 16 19 12 10 8 9 6 6 7 6 6 8 8 6 5 5 5 7 5 5 5 6 5 5
23 37 22 29 30 30 32 31 28 31 25 27 24 26 25 24 24 19 18 20 15 14 18 20 6 10 9 8 8 7 7 10 8 7 5 2 4 2 3 2 3 4 3 2
24 25 32 30 34 30 30 27 29 28 24 20 19 19 25 20 21 20 20 17 16 16 20 16 6 12 11 10 9 9 9 9 7 8 5 5 3 3 2 4 5 5 5 5
32 22 27 32 36 29 34 21 27 28 26 21 23 16 26 17 17 16 13 14 16 15 15 8 16 14 13 11 10 10 11 10 7 5 7 4 4 2 3 2 4 3 2 3
29 26 29 29 26 33 25 26 29 27 19 19 26 19 28 19 18 17 16 17 16 13 13 11 17 14 14 12 12 11 12 9 8 5 6 4 6 4 3 2 3 1 1 2
24 28 31 30 29 29 31 23 17 19 19 22 15 21 22 21 18 18 18 15 14 10 13 18 17 15 14 14 13 12 12 10 9 7 5 4 4 2 1 1 1 2 1 1
14 19 28 23 33 26 28 25 16 27 17 18 21 27 20 21 21 19 15 10 12 16 14 17 15 15 15 15 14 14 13 11 10 8 7 5 5 4 1 3 1 1 2 3
8 16 28 30 29 28 29 30 30 22 21 20 16 18 30 27 20 14 7 12 14 14 15 15 15 15 15 15 14 13 13 11 10 8 6 5 5 3 2 4 1 1 3 3
5 16 23 28 30 33 32 20 26 19 26 24 20 23 14 11 15 12 13 9 11 16 16 15 15 14 14 14 12 13 12 11 9 9 6 5 5 2 4 2 3 3 2 4
8 9 19 23 26 28 24 27 25 21 18 16 15 13 12 2 9 6 9 13 12 17 16 16 15 15 14 14 13 11 11 11 9 8 7 6 5 3 5 3 3 5 3 6
15 7 17 23 20 21 29 25 25 20 24 16 13 15 6 2 5 5 11 15 19 17 16 16 16 16 15 13 13 11 10 10 9 8 7 8 5 5 4 5 4 5 4 3
6 7 11 19 18 20 20 28 24 20 11 19 17 15 7 6 8 10 10 15 19 18 18 17 16 15 14 13 12 11 10 10 10 8 9 7 7 5 5 4 4 4 3 3
2 8 16 10 8 16 9 24 31 26 17 18 19 9 6 7 8 5 15 19 18 17 17 17 16 15 14 13 12 12 10 10 9 8 9 9 7 6 5 5 4 4 3 3
2 9 18 21 12 15 22 30 29 29 23 22 18 17 13 13 11 13 11 16 17 17 18 17 16 15 14 13 12 11 10 10 9 8 11 9 7 8 6 5 6 4 3 5
5 5 16 15 14 10 24 32 26 29 27 26 21 14 11 12 14 15 12 14 16 17 18 17 16 16 15 14 12 11 10 10 8 8 12 8 6 8 5 6 7 5 5 6
15 6 9 9 5 7 20 24 22 23 25 26 17 6 19 8 8 11 13 14 15 16 17 17 15 15 13 13 11 12 11 10 9 9 13 11 8 8 6 6 7 8 6 7
14 11 6 3 8 5 15 15 21 23 17 23 12 3 11 16 9 16 9 15 15 17 16 16 13 13 13 13 12 11 12 11 10 9 11 12 11 9 7 7 8 6 6 6
11 6 5 4 7 5 28 7 11 9 10 18 14 10 3 0 19 17 18 16 9 13 14 13 13 14 12 13 13 12 12 11 11 11 10 14 12 10 8 8 8 7 7 7
8 7 4 5 5 6 3 19 27 10 11 19 16 13 14 12 2 10 13 12 14 6 14 14 15 15 13 12 13 11 12 11 11 11 10 10 13 11 8 9 8 5 6 7
7 3 9 6 3 8 16 27 23 8 3 9 12 13 13 12 8 7 9 9 10 9 15 16 15 14 13 12 12 12 12 11 11 12 10 8 10 10 10 9 7 7 7 8
4 4 2 4 3 4 18 12 12 2 4 12 13 12 10 9 8 9 9 8 9 10 7 18 14 14 14 14 13 12 11 11 11 12 11 10 10 9 8 9 8 9 8 9
3 7 5 6 4 7 15 10 7 9 12 15 14 12 12 10 10 9 7 7 9 7 7 15 14 15 14 14 13 12 11 11 11 11 11 12 9 11 8 10 8 7 8 8
8 8 6 7 11 16 10 15 14 12 14 13 14 11 12 10 9 8 6 7 7 8 9 9 16 16 15 14 14 11 13 12 12 12 12 12 8 11 8 8 7 6 8 9
4 8 9 3 5 7 12 12 13 12 10 12 12 12 11 8 8 10 7 6 7 8 9 8 15 15 15 15 14 13 14 13 10 11 11 11 8 10 8 5 2 3 6 8
5 6 7 6 10 7 11 13 13 14 8 8 10 12 11 9 8 10 11 8 6 7 9 8 13 16 16 16 15 14 15 13 12 11 11 10 9 8 8 6 6 14 8 14
Wind_Direction
224 218 222 220 221 242 238 240 246 253 252 247 253 260 266 276 274 260 268 266 265 260 259 237 251 252 109 102 101 111 121 130 145 151 172 175 194 176 210 200 193 179 175 204
230 220 225 232 228 234 242 252 253 263 265 260 261 257 258 247 252 261 262 239 254 281 292 275 259 122 125 125 128 139 148 150 149 148 177 189 188 184 196 192 181 171 175 202
224 238 224 235 234 235 238 238 245 257 266 266 268 268 269 268 270 264 257 270 251 257 278 281 249 137 135 140 146 156 155 142 151 153 199 189 155 69 123 118 170 182 172 197
248 243 243 226 237 231 242 232 243 249 251 257 254 269 254 261 263 257 254 253 254 245 250 248 189 139 146 146 146 143 138 149 180 174 162 147 146 181 199 186 117 130 187 177
243 248 234 239 238 228 246 244 248 247 251 260 253 258 267 270 268 269 276 265 258 246 258 250 132 145 143 137 140 139 140 167 172 149 149 158 243 176 157 148 107 81 68 270
252 252 255 248 243 248 247 240 251 259 257 245 242 242 263 257 263 270 270 261 245 251 235 225 122 138 131 140 140 142 155 171 136 183 138 180 183 39 45 83 69 195 42 297
248 244 252 250 254 234 237 235 233 234 232 241 243 240 256 265 266 272 272 266 268 264 248 127 135 141 139 146 142 148 164 142 165 174 130 157 107 99 331 5 36 281 141 212
277 269 229 235 240 238 225 233 229 223 225 241 239 252 260 253 258 253 278 226 238 232 115 126 140 138 148 147 150 161 158 157 167 157 158 145 149 191 213 87 224 265 93 153
321 287 259 225 244 240 234 221 236 250 240 245 257 241 235 243 245 240 238 232 235 128 129 136 141 146 147 150 159 156 158 160 168 156 148 151 151 208 129 125 85 100 156 156
296 288 276 271 217 241 237 228 222 228 231 246 234 240 253 184 224 225 194 222 200 134 136 144 144 152 146 152 159 155 158 158 162 153 152 168 138 197 97 106 130 144 201 181
246 221 275 282 239 215 226 226 220 244 224 237 247 265 296 81 170 174 194 194 182 140 146 146 149 147 147 153 155 156 163 159 158 156 141 132 144 131 112 115 119 118 249 135
300 280 266 267 274 247 233 226 231 219 217 228 249 236 68 129 230 173 260 177 143 141 147 147 149 152 152 160 152 160 156 163 161 160 163 125 132 110 100 117 133 133 180 179
338 262 261 257 265 257 256 224 233 238 237 218 233 250 142 148 208 216 180 146 140 143 149 151 151 157 156 161 158 161 162 160 164 168 126 132 117 116 119 106 112 173 165 241
298 257 265 263 319 338 318 241 231 222 207 226 219 189 197 180 189 176 132 124 137 149 150 152 154 159 161 157 163 160 168 158 159 156 148 127 122 126 144 126 126 132 158 324
173 277 285 259 245 285 298 286 240 224 197 218 226 226 218 165 173 111 116 138 144 152 159 152 163 158 161 158 157 156 166 156 152 156 126 131 136 135 144 157 131 143 146 54
229 261 298 275 245 280 300 285 278 219 200 216 240 175 43 96 112 128 145 155 159 157 159 157 165 158 160 159 158 155 161 151 156 145 128 132 124 134 129 132 123 134 110 88
265 288 321 254 227 308 277 243 249 246 208 210 203 192 131 211 97 119 146 158 160 155 159 162 165 160 157 158 159 157 153 150 158 157 127 136 139 137 144 112 128 103 112 116
262 287 292 9 75 277 280 237 249 223 197 205 101 327 134 173 105 44 39 171 166 162 161 159 163 155 153 157 152 159 149 153 165 162 145 149 149 145 158 136 122 116 117 114
224 245 281 238 192 322 300 352 296 207 132 356 176 204 169 338 100 49 28 11 155 161 154 155 154 151 153 156 151 164 154 165 167 158 169 150 152 142 153 143 140 139 143 135
192 220 236 309 261 228 82 329 319 37 79 16 4 45 45 350 102 43 15 9 354 327 146 152 154 150 152 156 154 165 158 172 171 157 170 150 141 149 146 134 137 128 130 136
216 215 248 271 239 294 333 326 316 174 71 32 27 30 25 27 19 340 356 3 327 315 157 149 152 154 153 153 157 174 162 177 175 154 159 153 124 117 113 123 133 132 126 119
318 239 278 231 187 248 314 345 49 332 75 37 41 28 19 10 350 347 354 337 319 321 166 147 153 153 154 158 163 182 163 175 176 153 154 136 126 139 124 133 140 134 129 122
327 3 316 358 73 20 314 17 32 14 44 29 16 12 8 5 2 352 331 304 296 298 290 153 155 153 159 164 170 181 163 180 172 154 144 132 149 123 136 135 139 143 143 138
341 7 327 345 8 356 12 336 15 23 28 15 353 2 360 353 338 329 288 273 263 262 263 183 155 158 165 169 173 179 163 186 169 151 142 140 160 135 154 149 163 178 180 154
289 333 321 130 25 334 353 354 354 349 21 5 356 339 338 338 346 330 309 279 259 256 230 225 161 163 167 170 175 177 171 182 162 149 147 151 159 146 164 177 148 150 38 148
315 343 359 340 355 309 329 329 356 347 358 343 352 326 324 347 350 336 332 325 303 261 256 230 166 164 168 173 177 179 175 178 157 156 156 164 164 163 176 152 120 43 69 84